TimeCST,TemperatureF,Dew PointF,Humidity,Sea Level PressureIn,VisibilityMPH,Wind Direction,Wind SpeedMPH,Gust SpeedMPH,PrecipitationIn,Events,Conditions,WindDirDegrees,DateUTC
12:53 AM,62.1,55.9,80,30.14,7.0,SSE,10.4,-,N/A,,Overcast,160,2012-12-23 06:53:00
1:53 AM,63.0,55.9,78,30.11,4.0,SSE,11.5,-,N/A,,Haze,160,2012-12-23 07:53:00
2:53 AM,63.0,57.0,81,30.10,3.0,South,5.8,-,N/A,,Haze,170,2012-12-23 08:53:00
3:10 AM,62.6,57.2,82,30.10,2.5,South,5.8,-,N/A,,Haze,170,2012-12-23 09:10:00
3:50 AM,62.6,57.2,82,30.09,3.0,South,5.8,-,N/A,,Haze,170,2012-12-23 09:50:00
3:53 AM,62.1,57.0,84,30.09,4.0,South,5.8,-,N/A,,Haze,170,2012-12-23 09:53:00
4:53 AM,63.0,57.0,81,30.07,10.0,South,9.2,-,N/A,,Overcast,180,2012-12-23 10:53:00
5:53 AM,62.6,57.2,82,30.06,10.0,South,6.9,-,N/A,,Overcast,180,2012-12-23 11:53:00
6:53 AM,63.0,57.9,84,30.07,10.0,South,5.8,-,N/A,,Overcast,180,2012-12-23 12:53:00
7:53 AM,64.0,59.0,84,30.07,10.0,South,5.8,-,N/A,,Overcast,170,2012-12-23 13:53:00
8:53 AM,66.0,60.1,81,30.08,10.0,South,6.9,-,N/A,,Overcast,180,2012-12-23 14:53:00
9:53 AM,66.9,61.0,81,30.08,10.0,South,10.4,-,0.00,,Overcast,180,2012-12-23 15:53:00
10:53 AM,69.1,61.0,75,30.06,10.0,South,12.7,-,N/A,,Scattered Clouds,190,2012-12-23 16:53:00
11:53 AM,69.1,61.0,75,30.03,10.0,South,13.8,-,N/A,,Overcast,190,2012-12-23 17:53:00
12:53 PM,72.0,61.0,68,29.99,10.0,SSW,13.8,21.9,N/A,,Mostly Cloudy,200,2012-12-23 18:53:00
1:53 PM,72.0,61.0,68,29.96,10.0,South,13.8,20.7,N/A,,Mostly Cloudy,190,2012-12-23 19:53:00
2:53 PM,72.0,62.1,71,29.95,10.0,SSW,15.0,20.7,0.00,,Mostly Cloudy,200,2012-12-23 20:53:00
3:04 PM,71.6,62.6,73,29.95,10.0,SSW,13.8,23.0,N/A,,Mostly Cloudy,200,2012-12-23 21:04:00
3:53 PM,70.0,62.1,76,29.93,10.0,South,13.8,20.7,N/A,,Mostly Cloudy,190,2012-12-23 21:53:00
4:00 PM,69.8,62.6,78,29.93,10.0,South,11.5,-,N/A,,Partly Cloudy,190,2012-12-23 22:00:00
4:53 PM,69.1,63.0,81,29.93,10.0,SSW,11.5,-,N/A,,Mostly Cloudy,200,2012-12-23 22:53:00
5:53 PM,68.0,63.0,84,29.93,10.0,South,11.5,-,N/A,,Overcast,190,2012-12-23 23:53:00
6:53 PM,66.9,63.0,87,29.92,10.0,South,9.2,-,N/A,,Scattered Clouds,190,2012-12-24 00:53:00
7:53 PM,66.9,63.0,87,29.92,10.0,South,10.4,-,N/A,,Partly Cloudy,190,2012-12-24 01:53:00
8:53 PM,66.9,64.0,90,29.93,10.0,SSW,8.1,-,N/A,,Mostly Cloudy,200,2012-12-24 02:53:00
9:53 PM,66.0,64.0,93,29.94,10.0,SSW,9.2,-,N/A,,Mostly Cloudy,200,2012-12-24 03:53:00
10:36 PM,66.2,62.6,88,29.93,10.0,SSW,8.1,-,N/A,,Mostly Cloudy,210,2012-12-24 04:36:00
10:53 PM,66.0,63.0,90,29.92,10.0,SSW,6.9,-,N/A,,Overcast,210,2012-12-24 04:53:00
11:53 PM,66.0,64.0,93,29.92,10.0,SSW,8.1,-,N/A,,Overcast,210,2012-12-24 05:53:00